User: anonymous   Login
Location: Unspecified
(47.5448°N, 0.0000°E)
Time: 12:19:47
(UTC+00:00)
Language:

YUBILEINY - Orbit

View from above orbital plane
View from above orbital plane
View from above satellite
View from above satellite

Ground track
Ground track

The orbit is defined by the following mean orbital elements,

1 32953U          26088.18364507 +.00000000 +00000-0 +50774-3 0 00009
2 32953  82.5033  45.1937 0020215 123.4599 236.8417 12.43176873    00
Epoch (UTC): 29 March 2026 04:24:26
Eccentricity: 0.0020215
inclination: 82.5033°
perigee height: 1477 km
apogee height: 1509 km
right ascension of ascending node: 45.1937°
argument of perigee: 123.4599°
revolutions per day: 12.43176873
mean anomaly at epoch: 236.8417°

The dashed part of the orbit path shows where the satellite is in the earth's shadow,  

DLR